Flag for Netherlands Weather past 2 weeks in Almere, Netherlands

Now
57 °F

Passing clouds.


Feels Like: 53 °F
Forecast: 47 / 58 °F
Wind: 18 mph from Southwest

Location: Amsterdam Schiphol Airport

Current Time: May 28, 2015 at 4:40:32 AM

Latest Report: May 28, 2015 at 3:55 AM


Visibility: N/A

Pressure: 29.89 "Hg

Humidity: 72%

Dew point: 48 °F

Location of AlmereLocation

Historic Weather in Almere — Graph

°F

Almere temperature yesterday

Maximum temperature yesterday: 64 °F (at 2:55 PM)
Minimum temperature yesterday: 46 °F (at 3:25 AM)
Average temperature yesterday: 56 °F

Past Weeks' High & Low Weather Summary

 TemperatureHumidityPressure
High66 °F (May 22, 1:55 PM)100% (May 16, 11:25 AM)30.33 "Hg (May 16, 11:25 AM)
Low41 °F (May 24, 2:25 AM)30% (May 24, 5:25 PM)29.56 "Hg (May 19, 4:25 AM)
Average53 °F73%30.07 "Hg
* Reported May 13 3:25 AM — May 28 3:25 AM, Almere, Weather by CustomWeather, © 2015

Note: Actual official high and low records may vary slightly from our data, if they occured in-between our weather recording intervals... More about our weather records

Advertising

Almere weather history for previous 24 hours

 ConditionsComfort  
Time TempWeatherWind HumidityBarometerVisibility
3:25 AM
Thu, May 28
57 °FPassing clouds.21 mph72%29.89 "HgN/A
2:55 AM57 °FPassing clouds.16 mph72%29.92 "HgN/A
2:25 AM57 °FPassing clouds.14 mph72%29.92 "HgN/A
1:55 AM57 °FPassing clouds.13 mph72%29.95 "HgN/A
1:25 AM57 °FPassing clouds.13 mph72%29.95 "HgN/A
12:55 AM55 °FPassing clouds.12 mph77%29.98 "HgN/A
12:25 AM54 °FClear.9 mph77%29.98 "Hg10 mi
11:55 PM
Wed, May 27
54 °FClear.8 mph77%30.01 "Hg10 mi
11:25 PM54 °FClear.7 mph77%30.01 "Hg10 mi
10:55 PM54 °FClear.7 mph77%30.04 "Hg10 mi
10:25 PM54 °FPassing clouds.8 mph77%30.04 "HgN/A
9:55 PM54 °FPassing clouds.8 mph77%30.04 "HgN/A
9:25 PM54 °FPassing clouds.6 mph77%30.07 "HgN/A
8:55 PM54 °FPassing clouds.7 mph77%30.07 "HgN/A
8:25 PM54 °FPassing clouds.8 mph77%30.07 "HgN/A
7:55 PM55 °FPassing clouds.9 mph72%30.09 "HgN/A
7:25 PM57 °FPassing clouds.9 mph67%30.09 "HgN/A
6:55 PM57 °FPassing clouds.9 mph67%30.09 "HgN/A
6:25 PM57 °FPassing clouds.12 mph67%30.12 "HgN/A
5:55 PM57 °FPassing clouds.13 mph67%30.12 "HgN/A
5:25 PM59 °FPassing clouds.13 mph68%30.12 "HgN/A
4:55 PM61 °FPassing clouds.15 mph63%30.15 "HgN/A
4:25 PM61 °FPassing clouds.14 mph63%30.15 "HgN/A
3:55 PM63 °FPassing clouds.16 mph59%30.15 "HgN/A
3:25 PM63 °FPassing clouds.14 mph64%30.15 "HgN/A
2:55 PM64 °FPassing clouds.15 mph64%30.15 "HgN/A
2:25 PM63 °FPassing clouds.15 mph64%30.18 "HgN/A
1:55 PM63 °FPassing clouds.14 mph68%30.18 "HgN/A
1:25 PM63 °FPassing clouds.13 mph64%30.18 "HgN/A
12:55 PM61 °FPassing clouds.13 mph68%30.18 "HgN/A
12:25 PM61 °FPassing clouds.10 mph68%30.21 "HgN/A
11:55 AM61 °FScattered clouds.12 mph59%30.21 "HgN/A
11:25 AM61 °FPassing clouds.12 mph59%30.21 "HgN/A
10:55 AM61 °FPassing clouds.8 mph68%30.21 "HgN/A
10:25 AM59 °FPassing clouds.9 mph68%30.21 "HgN/A
9:55 AM57 °FPassing clouds.8 mph72%30.24 "HgN/A
9:25 AM57 °FPassing clouds.9 mph67%30.24 "HgN/A
8:55 AM55 °FSunny.8 mph72%30.24 "Hg10 mi
8:25 AM55 °FPassing clouds.7 mph72%30.24 "HgN/A
7:55 AM54 °FPassing clouds.6 mph77%30.24 "HgN/A
7:25 AM54 °FPassing clouds.6 mph77%30.24 "HgN/A
6:55 AM52 °FSunny.5 mph82%30.24 "Hg10 mi
6:25 AM52 °FClear.6 mph82%30.24 "Hg10 mi
5:25 AM48 °FClear.6 mph87%30.24 "Hg10 mi
4:55 AM48 °FClear.6 mph87%30.24 "Hg10 mi
4:25 AM48 °FClear.3 mph82%30.24 "Hg10 mi
Weather by CustomWeather, © 2015

See weather overviewHow to use our weather pages